TimeCDT,TemperatureF,Dew PointF,Humidity,Sea Level PressureIn,VisibilityMPH,Wind Direction,Wind SpeedMPH,Gust SpeedMPH,PrecipitationIn,Events,Conditions,WindDirDegrees,DateUTC
12:15 AM,-11.2,-16.6,77,30.32,10.0,WNW,4.6,-,N/A,,Clear,290,2013-03-17 05:15:00
12:35 AM,-13.0,-16.6,84,30.31,10.0,NW,3.5,-,N/A,,Clear,320,2013-03-17 05:35:00
12:55 AM,-11.2,-16.6,77,30.31,10.0,NW,3.5,-,N/A,,Clear,320,2013-03-17 05:55:00
1:15 AM,-9.4,-14.8,77,30.29,10.0,North,4.6,-,N/A,,Clear,350,2013-03-17 06:15:00
1:35 AM,-11.2,-16.6,77,30.29,10.0,WNW,3.5,-,N/A,,Clear,300,2013-03-17 06:35:00
1:55 AM,-13.0,-16.6,84,30.29,10.0,Calm,Calm,-,N/A,,Clear,0,2013-03-17 06:55:00
2:15 AM,-13.0,-16.6,84,30.28,10.0,Calm,Calm,-,N/A,,Clear,0,2013-03-17 07:15:00
2:35 AM,-13.0,-18.4,77,30.28,10.0,Calm,Calm,-,N/A,,Clear,0,2013-03-17 07:35:00
2:55 AM,-13.0,-18.4,77,30.27,10.0,Calm,Calm,-,N/A,,Clear,0,2013-03-17 07:55:00
3:15 AM,-16.6,-22.0,76,30.27,10.0,WSW,3.5,-,N/A,,Clear,240,2013-03-17 08:15:00
3:35 AM,-18.4,-22.0,84,30.28,10.0,West,8.1,-,N/A,,Clear,260,2013-03-17 08:35:00
3:55 AM,-18.4,-23.8,76,30.27,10.0,West,4.6,-,N/A,,Clear,260,2013-03-17 08:55:00
4:15 AM,-18.4,-22.0,84,30.25,10.0,Calm,Calm,-,N/A,,Clear,0,2013-03-17 09:15:00
4:35 AM,-18.4,-22.0,84,30.23,10.0,Calm,Calm,-,N/A,,Clear,0,2013-03-17 09:35:00
4:55 AM,-18.4,-23.8,76,30.22,10.0,Calm,Calm,-,N/A,,Scattered Clouds,0,2013-03-17 09:55:00
5:15 AM,-18.4,-22.0,84,30.22,10.0,Calm,Calm,-,N/A,,Scattered Clouds,0,2013-03-17 10:15:00
5:35 AM,-14.8,-20.2,77,30.23,10.0,Calm,Calm,-,N/A,,Mostly Cloudy,0,2013-03-17 10:35:00
5:55 AM,-13.0,-18.4,77,30.23,10.0,WSW,3.5,-,N/A,,Scattered Clouds,240,2013-03-17 10:55:00
6:15 AM,-14.8,-20.2,77,30.21,10.0,Calm,Calm,-,N/A,,Clear,0,2013-03-17 11:15:00
6:35 AM,-13.0,-18.4,77,30.20,10.0,East,4.6,-,N/A,,Scattered Clouds,90,2013-03-17 11:35:00
6:55 AM,-13.0,-18.4,77,30.20,10.0,ESE,4.6,-,N/A,,Partly Cloudy,110,2013-03-17 11:55:00
7:15 AM,-13.0,-18.4,77,30.19,10.0,ESE,4.6,-,N/A,,Clear,120,2013-03-17 12:15:00
7:35 AM,-13.0,-18.4,77,30.18,10.0,ESE,5.8,-,N/A,,Mostly Cloudy,120,2013-03-17 12:35:00
7:55 AM,-11.2,-16.6,77,30.16,10.0,ESE,6.9,-,N/A,,Mostly Cloudy,120,2013-03-17 12:55:00
8:15 AM,-9.4,-13.0,84,30.15,10.0,SE,9.2,-,N/A,,Overcast,130,2013-03-17 13:15:00
8:35 AM,-7.6,-9999,N/A,30.15,10.0,SE,11.5,-,N/A,,Overcast,140,2013-03-17 13:35:00
8:55 AM,-7.6,-11.2,84,30.14,10.0,SE,12.7,-,N/A,,Overcast,140,2013-03-17 13:55:00
9:15 AM,-5.8,-9.4,84,30.12,10.0,SSE,12.7,-,N/A,,Mostly Cloudy,150,2013-03-17 14:15:00
9:35 AM,-4.0,-9.4,78,30.11,10.0,SSE,12.7,-,N/A,,Overcast,150,2013-03-17 14:35:00
10:15 AM,-0.4,-5.8,78,30.08,10.0,SSE,16.1,-,N/A,,Scattered Clouds,150,2013-03-17 15:15:00
10:35 AM,-0.4,-4.0,85,30.07,10.0,SSE,17.3,-,N/A,,Partly Cloudy,150,2013-03-17 15:35:00
10:55 AM,-0.4,-2.2,92,30.07,8.0,SSE,15.0,-,N/A,Snow,Light Snow,160,2013-03-17 15:55:00
11:15 AM,1.4,-2.2,85,30.05,8.0,SSE,17.3,-,N/A,,Scattered Clouds,150,2013-03-17 16:15:00
11:35 AM,1.4,-2.2,85,30.05,9.0,SSE,17.3,-,N/A,,Mostly Cloudy,150,2013-03-17 16:35:00
11:55 AM,1.4,-2.2,85,30.04,5.0,SSE,17.3,-,N/A,Snow,Light Snow,150,2013-03-17 16:55:00
12:15 PM,3.2,-2.2,78,30.02,3.0,SSE,16.1,-,N/A,Snow,Light Snow,150,2013-03-17 17:15:00
12:35 PM,5.0,-0.4,78,30.01,3.0,SSE,17.3,-,N/A,Snow,Light Snow,160,2013-03-17 17:35:00
12:55 PM,5.0,-0.4,78,30.00,3.0,SSE,18.4,-,N/A,Snow,Light Snow,150,2013-03-17 17:55:00
1:15 PM,6.8,-0.4,72,29.99,3.0,SSE,18.4,-,N/A,Snow,Light Snow,150,2013-03-17 18:15:00
1:35 PM,6.8,1.4,79,29.99,6.0,SSE,16.1,-,N/A,,Haze,150,2013-03-17 18:35:00
1:55 PM,6.8,1.4,79,29.98,3.0,SSE,19.6,-,N/A,Snow,Light Snow,150,2013-03-17 18:55:00
2:15 PM,8.6,3.2,79,29.97,2.0,SSE,17.3,-,N/A,Snow,Light Snow,150,2013-03-17 19:15:00
2:35 PM,8.6,5.0,85,29.95,2.5,SSE,17.3,-,N/A,Snow,Light Snow,150,2013-03-17 19:35:00
2:55 PM,10.4,5.0,79,29.93,2.0,SSE,20.7,24.2,N/A,Snow,Light Snow,150,2013-03-17 19:55:00
3:15 PM,10.4,6.8,85,29.91,2.5,SSE,23.0,29.9,N/A,Snow,Light Snow,150,2013-03-17 20:15:00
3:35 PM,10.4,6.8,85,29.90,3.0,SE,21.9,-,N/A,Snow,Light Snow,140,2013-03-17 20:35:00
3:55 PM,10.4,6.8,85,29.89,3.0,SE,21.9,-,N/A,,Overcast,140,2013-03-17 20:55:00
4:15 PM,10.4,6.8,85,29.87,3.0,SE,21.9,28.8,N/A,,Overcast,140,2013-03-17 21:15:00
4:35 PM,10.4,6.8,85,29.86,2.5,SSE,23.0,28.8,N/A,,Overcast,150,2013-03-17 21:35:00
4:55 PM,12.2,8.6,85,29.85,3.0,SE,21.9,-,N/A,,Overcast,140,2013-03-17 21:55:00
5:15 PM,12.2,8.6,85,29.84,5.0,SE,21.9,26.5,N/A,,Overcast,140,2013-03-17 22:15:00
5:35 PM,14.0,8.6,79,29.83,6.0,SE,20.7,25.3,N/A,,Mostly Cloudy,140,2013-03-17 22:35:00
5:55 PM,14.0,8.6,79,29.81,5.0,SE,19.6,-,N/A,,Mostly Cloudy,140,2013-03-17 22:55:00
6:15 PM,14.0,10.4,86,29.79,6.0,SE,18.4,27.6,N/A,,Overcast,130,2013-03-17 23:15:00
6:35 PM,14.0,10.4,86,29.78,5.0,SE,18.4,25.3,N/A,Snow,Light Snow,130,2013-03-17 23:35:00
6:55 PM,15.8,10.4,79,29.77,4.0,SE,16.1,-,N/A,Snow,Light Snow,130,2013-03-17 23:55:00
7:15 PM,15.8,10.4,79,29.76,10.0,SE,16.1,-,N/A,,Overcast,130,2013-03-18 00:15:00
7:35 PM,15.8,12.2,86,29.76,10.0,SE,17.3,-,N/A,,Overcast,140,2013-03-18 00:35:00
7:55 PM,15.8,12.2,86,29.76,8.0,SE,13.8,-,N/A,Snow,Light Snow,140,2013-03-18 00:55:00
8:15 PM,15.8,12.2,86,29.75,8.0,SE,15.0,-,N/A,Snow,Light Snow,130,2013-03-18 01:15:00
8:35 PM,15.8,14.0,93,29.75,1.2,SE,13.8,-,N/A,Snow,Light Snow,130,2013-03-18 01:35:00
8:55 PM,15.8,14.0,93,29.74,1.0,SE,11.5,-,N/A,Snow,Light Snow,130,2013-03-18 01:55:00
9:15 PM,15.8,14.0,93,29.73,0.8,SE,11.5,-,N/A,Snow,Light Snow,130,2013-03-18 02:15:00
9:35 PM,17.6,15.8,93,29.72,0.8,SE,12.7,-,N/A,Snow,Light Snow,130,2013-03-18 02:35:00
9:55 PM,17.6,15.8,93,29.71,1.8,SE,11.5,17.3,N/A,Snow,Light Snow,130,2013-03-18 02:55:00
10:15 PM,17.6,15.8,93,29.69,2.0,SE,15.0,19.6,N/A,Snow,Light Snow,130,2013-03-18 03:15:00
10:35 PM,17.6,15.8,93,29.68,3.0,SE,16.1,-,N/A,Snow,Light Snow,130,2013-03-18 03:35:00
10:55 PM,17.6,15.8,93,29.68,2.0,SE,16.1,-,N/A,Snow,Light Snow,130,2013-03-18 03:55:00
11:15 PM,17.6,15.8,93,29.67,2.0,SE,13.8,19.6,N/A,Snow,Light Snow,130,2013-03-18 04:15:00
11:35 PM,17.6,15.8,93,29.66,5.0,ESE,12.7,-,N/A,Snow,Light Snow,120,2013-03-18 04:35:00
11:55 PM,17.6,15.8,93,29.64,2.0,SE,12.7,-,N/A,Snow,Light Snow,130,2013-03-18 04:55:00